Location: Sungai Dangang
(2.7500°N, 113.8333°E)
Time: 18:28:50
(UTC+00:00)

Cosmos 2237 Rocket - Pass Details

Date: 16 May 2021
Orbit: 836 x 848 km, 71.0° (Epoch: 19 June)

Event Time Altitude Azimuth Distance (km) Brightness Sun altitude
Exits shadow 20:35:25 - 174° (S) 2,564 4.5 -23.8°
Reaches altitude 10° 20:35:42 10° 173° (S) 2,465 4.5 -23.7°
Maximum altitude 20:40:57 40° 105° (ESE) 1,230 3.4 -22.5°
Drops below altitude 10° 20:46:10 10° 37° (NE) 2,451 5.4 -21.3°
Sets 20:48:44 0° 30° (NNE) 3,382 6.1 -20.7°
